User: anonymous   Login
Location: Unspecified
(0.0000°N, 0.0000°E)
Time: 11:45:07
(UTC+00:00)
Language:

Optus B1 - Orbit

View from above orbital plane
View from above orbital plane
View from above satellite
View from above satellite

Ground track
Ground track

The orbit data is extracted from the following two-line orbital elements,

1 22087U 92054A   16272.37981709 -.00000242  00000-0  00000+0 0  9999
2 22087   8.3000  48.0075 0006858  77.4113 324.9586  0.99205419 99493
Epoch (UTC): 28 September 2016 09:06:56
Eccentricity: 0.0006858
inclination: 8.3000°
perigee height: 36059 km
apogee height: 36117 km
right ascension of ascending node: 48.0075°
argument of perigee: 77.4113°
revolutions per day: 0.99205419
mean anomaly at epoch: 324.9586°
orbit number at epoch: 9949

The dashed part of the orbit path shows where the satellite is in the earth's shadow,  

DLR